Location: Easter Hill Village
(37.9235°N, 122.3444°W)
Time: 23:53:57
(UTC+00:00)

Meteor 1-11 Rocket - Pass Details

Date: 16 September 2019
Orbit: 831 x 916 km, 81.2° (Epoch: 14 October)

Event Time Altitude Azimuth Distance (km) Brightness Sun altitude
Rises 13:18:44 0° 342° (NNW) 3,432 6.8 -7.3°
Reaches altitude 10° 13:21:20 10° 335° (NNW) 2,480 6.0 -6.8°
Maximum altitude 13:26:27 38° 268° (W) 1,258 4.2 -5.8°
Drops below altitude 10° 13:31:29 10° 202° (SSW) 2,433 5.8 -4.8°
Sets 13:34:01 0° 194° (SSW) 3,359 6.6 -4.4°
